Location: Albany
(35.0000°S, 118.0000°E)
Time: 02:50:27
(UTC-04:00)

Cosmos 1933 - Visible Passes

Search period start: 24 July 2016 00:00
Search period end: 03 August 2016 00:00
Orbit: 550 x 565 km, 82.5° (Epoch: 23 July)

Date Brightness Start Highest point End Pass type
(mag) Time Alt. Az. Time Alt. Az. Time Alt. Az.
24 Jul 6.3 18:28:00 10° SE 18:30:24 15° ESE 18:32:46 10° ENE visible
25 Jul 6.2 18:25:46 10° SSE 18:28:33 18° ESE 18:31:18 10° ENE visible
26 Jul 6.1 18:23:36 10° SSE 18:26:42 20° ESE 18:29:45 10° NE visible
27 Jul 5.8 18:21:29 10° SSE 18:24:50 24° ESE 18:28:08 10° NE visible
28 Jul 5.6 18:19:24 10° SSE 18:22:58 28° ESE 18:26:28 10° NE visible
29 Jul 5.2 18:17:22 10° SSE 18:21:05 33° E 18:24:46 10° NE visible
30 Jul 5.5 06:36:06 10° NE 06:36:31 12° NE 06:36:31 12° NE visible
30 Jul 6.3 08:11:58 10° NW 08:12:29 13° NW 08:12:29 13° NW visible
30 Jul 4.9 18:15:21 10° S 18:19:13 39° E 18:23:00 10° NNE visible
31 Jul 4.7 06:33:52 10° NE 06:36:09 21° ENE 06:36:09 21° ENE visible
31 Jul 6.0 08:10:21 10° NW 08:12:08 18° WNW 08:12:08 18° WNW visible
31 Jul 4.5 18:13:21 10° S 18:17:18 47° E 18:21:13 10° NNE visible
01 Aug 4.3 06:31:42 10° NNE 06:35:06 26° E 06:35:53 24° ESE visible
01 Aug 6.0 08:08:47 10° WNW 08:11:38 18° WSW 08:11:52 18° WSW visible
01 Aug 4.1 18:11:23 10° S 18:15:24 56° E 18:19:24 10° NNE visible
02 Aug 4.1 06:29:33 10° NNE 06:33:10 31° E 06:35:44 16° SE visible
02 Aug 6.3 08:07:18 10° WNW 08:09:47 16° WSW 08:11:43 12° SW visible
02 Aug 3.7 18:09:26 10° S 18:13:31 68° E 18:17:32 10° NNE visible
